Flag for U.S.A. Weather past 2 weeks in Greenville, South Carolina, U.S.A.

Now
70 °F

Partly sunny.


Feels Like: 75 °F
Forecast: 48 / 68 °F
Wind: 15 mph from Southwest

Location: Greenville Downtown Airport

Current Time: Mar 4, 2015 at 4:12:28 PM

Latest Report: Mar 4, 2015 at 3:53 PM


Visibility: 10 mi

Pressure: 29.91 "Hg

Humidity: 66%

Dew point: 58 °F

Location of GreenvilleLocation

Historic Weather in Greenville — Graph

°F

Greenville temperature yesterday

Maximum temperature yesterday: 54 °F (at 12:53 AM)
Minimum temperature yesterday: 42 °F (at 9:53 AM)
Average temperature yesterday: 46 °F

Past Weeks' High & Low Weather Summary

 TemperatureHumidityPressure
High69 °F (Mar 2, 2:53 PM)97% (Mar 2, 2:53 AM)30.71 "Hg (Mar 2, 2:53 AM)
Low11 °F (Feb 20, 5:53 AM)24% (Feb 19, 1:53 PM)29.70 "Hg (Feb 26, 3:53 AM)
Average38 °F65%30.20 "Hg
* Reported Feb 17 2:53 PM — Mar 4 2:53 PM, Greenville, Weather by CustomWeather, © 2015

Note: Actual official high and low records may vary slightly from our data, if they occured in-between our weather recording intervals... More about our weather records

Advertising

Greenville weather history for previous 24 hours

 ConditionsComfort  
Time TempWeatherWind HumidityBarometerVisibility
2:53 PM
Wed, Mar 4
67 °FPartly sunny.20 mph73%29.93 "Hg10 mi
1:53 PM65 °FOvercast.17 mph76%29.95 "Hg10 mi
12:53 PM59 °FLow clouds.16 mph87%29.98 "Hg7 mi
11:53 AM58 °FLow clouds.14 mph90%30.00 "Hg8 mi
10:56 AM56 °FFog.14 mph93%30.01 "Hg3 mi
9:53 AM53 °FFog.14 mph93%30.03 "Hg1 mi
8:53 AM52 °FFog.10 mph97%30.03 "Hg1 mi
7:53 AM52 °FFog.9 mph93%30.03 "Hg1 mi
7:01 AM50 °FFog.9 mph93%30.02 "Hg1 mi
6:53 AM50 °FFog.9 mph93%30.03 "Hg1 mi
5:57 AM49 °FFog.9 mph97%30.02 "Hg6 mi
4:53 AM47 °FFog.8 mph97%30.03 "Hg1 mi
3:53 AM46 °FFog.6 mph93%30.04 "Hg1 mi
2:53 AM45 °FFog.6 mph93%30.06 "Hg1 mi
1:53 AM45 °FFog.5 mph93%30.07 "Hg1 mi
12:53 AM44 °FFog.3 mph96%30.09 "Hg3 mi
12:04 AM45 °FFog.5 mph93%30.10 "Hg1 mi
11:53 PM
Tue, Mar 3
45 °FFog.3 mph93%30.11 "Hg1 mi
10:53 PM44 °FFog.5 mph93%30.13 "Hg2 mi
10:04 PM44 °FFog.3 mph93%30.14 "Hg3 mi
9:53 PM44 °FFog.No wind93%30.15 "Hg3 mi
8:53 PM44 °FFog.3 mph89%30.16 "Hg4 mi
7:53 PM44 °FLight rain. Fog.3 mph93%30.16 "Hg2 mi
6:53 PM44 °FFog.3 mph89%30.16 "Hg4 mi
5:53 PM45 °FLight rain. Fog.3 mph86%30.15 "Hg2 mi
4:53 PM46 °FOvercast.No wind79%30.17 "Hg10 mi
Weather by CustomWeather, © 2015

See weather overviewHow to use our weather pages